Hourly Weather Kistochkivka

Today, 22 October, Thursday

Time Temperature Precipitation Wind Pressure Humidity
00:00 +11°C° 0 mm 1 mps 763 mmHg 64%
01:00 +11°C° 0 mm 1 mps 763 mmHg 63%
02:00 +11°C° 0 mm 1 mps 763 mmHg 62%
03:00 +11°C° 0 mm 1 mps 763 mmHg 62%
04:00 +11°C° 0 mm 1 mps 763 mmHg 61%
05:00 +11°C° 0 mm 1 mps 763 mmHg 61%
06:00 +12°C° 0 mm 2 mps 763 mmHg 57%
07:00 +13°C° 0 mm 2 mps 763 mmHg 54%
08:00 +15°C° 0 mm 2 mps 763 mmHg 50%
09:00 +16°C° 0 mm 2 mps 763 mmHg 47%
10:00 +18°C° 0 mm 3 mps 763 mmHg 44%
11:00 +20°C° 0 mm 3 mps 763 mmHg 41%
12:00 +20°C° 0 mm 3 mps 763 mmHg 41%
13:00 +21°C° 0 mm 3 mps 763 mmHg 40%
14:00 +22°C° 0 mm 4 mps 763 mmHg 40%
15:00 +20°C° 0 mm 3 mps 762 mmHg 48%
16:00 +18°C° 0 mm 3 mps 762 mmHg 56%
17:00 +17°C° 0 mm 3 mps 762 mmHg 65%
18:00 +16°C° 0 mm 2 mps 762 mmHg 69%
19:00 +15°C° 0 mm 2 mps 762 mmHg 74%
20:00 +14°C° 0 mm 2 mps 763 mmHg 79%
21:00 +14°C° 0 mm 2 mps 762 mmHg 79%
22:00 +14°C° 0 mm 2 mps 762 mmHg 79%
23:00 +14°C° 0 mm 2 mps 762 mmHg 79%

Tomorrow, 23 October, Friday

Time Temperature Precipitation Wind Pressure Humidity
00:00 +14°C° 0 mm 2 mps 762 mmHg 77%
01:00 +14°C° 0 mm 2 mps 762 mmHg 75%
02:00 +13°C° 0 mm 2 mps 762 mmHg 74%
03:00 +13°C° 0 mm 2 mps 762 mmHg 73%
04:00 +13°C° 0 mm 2 mps 762 mmHg 72%
05:00 +13°C° 0 mm 2 mps 762 mmHg 71%
06:00 +14°C° 0 mm 2 mps 762 mmHg 66%
07:00 +15°C° 0 mm 2 mps 762 mmHg 62%
08:00 +16°C° 0 mm 1 mps 762 mmHg 58%
09:00 +19°C° 0 mm 1 mps 762 mmHg 52%
10:00 +20°C° 0 mm 2 mps 762 mmHg 46%
11:00 +21°C° 0 mm 2 mps 762 mmHg 41%
12:00 +23°C° 0 mm 2 mps 761 mmHg 39%
13:00 +24°C° 0 mm 2 mps 761 mmHg 37%
14:00 +24°C° 0 mm 2 mps 760 mmHg 34%
15:00 +21°C° 0 mm 2 mps 760 mmHg 45%
16:00 +20°C° 0 mm 2 mps 760 mmHg 56%
17:00 +18°C° 0 mm 2 mps 760 mmHg 66%
18:00 +17°C° 0 mm 2 mps 759 mmHg 73%
19:00 +16°C° 0 mm 2 mps 759 mmHg 79%
20:00 +16°C° 0 mm 2 mps 759 mmHg 86%
21:00 +15°C° 0 mm 2 mps 759 mmHg 85%
22:00 +15°C° 0 mm 2 mps 759 mmHg 85%
23:00 +14°C° 0 mm 2 mps 759 mmHg 84%

Day after tomorrow, 24 October, Saturday

Time Temperature Precipitation Wind Pressure Humidity
00:00 +14°C° 0 mm 2 mps 758 mmHg 83%
01:00 +14°C° 0 mm 1 mps 758 mmHg 81%
02:00 +14°C° 0 mm 1 mps 758 mmHg 80%
03:00 +14°C° 0 mm 1 mps 758 mmHg 79%
04:00 +14°C° 0 mm 1 mps 758 mmHg 77%
05:00 +13°C° 0 mm 1 mps 758 mmHg 76%
06:00 +15°C° 0 mm 1 mps 758 mmHg 70%
07:00 +16°C° 0 mm 1 mps 758 mmHg 64%
08:00 +18°C° 0 mm 1 mps 758 mmHg 59%
09:00 +19°C° 0 mm 2 mps 758 mmHg 53%
10:00 +21°C° 0 mm 2 mps 757 mmHg 48%
11:00 +24°C° 0 mm 2 mps 757 mmHg 43%
12:00 +24°C° 0 mm 2 mps 757 mmHg 42%
13:00 +25°C° 0 mm 3 mps 757 mmHg 41%
14:00 +25°C° 0 mm 3 mps 757 mmHg 40%
15:00 +24°C° 0 mm 3 mps 757 mmHg 50%
16:00 +21°C° 0 mm 3 mps 756 mmHg 59%
17:00 +19°C° 0 mm 2 mps 756 mmHg 68%
18:00 +18°C° 0 mm 2 mps 756 mmHg 72%
19:00 +18°C° 0 mm 2 mps 756 mmHg 75%
20:00 +17°C° 0 mm 2 mps 756 mmHg 79%
21:00 +17°C° 0 mm 2 mps 756 mmHg 78%
22:00 +17°C° 0 mm 2 mps 756 mmHg 78%
23:00 +16°C° 0 mm 1 mps 756 mmHg 77%

, 25 October, Sunday

Time Temperature Precipitation Wind Pressure Humidity
00:00 +16°C° 0 mm 1 mps 756 mmHg 77%
01:00 +16°C° 0 mm 2 mps 756 mmHg 78%
02:00 +16°C° 0 mm 2 mps 756 mmHg 79%
03:00 +16°C° 0 mm 2 mps 756 mmHg 80%
04:00 +16°C° 0 mm 2 mps 756 mmHg 82%
05:00 +16°C° 0 mm 2 mps 756 mmHg 83%
06:00 +16°C° 0 mm 2 mps 757 mmHg 81%
07:00 +17°C° 0 mm 2 mps 757 mmHg 79%
08:00 +18°C° 0 mm 2 mps 757 mmHg 76%
09:00 +19°C° 0 mm 2 mps 757 mmHg 70%
10:00 +20°C° 0 mm 2 mps 757 mmHg 64%
11:00 +21°C° 0 mm 2 mps 758 mmHg 57%
12:00 +21°C° 0 mm 2 mps 758 mmHg 53%
13:00 +23°C° 0 mm 2 mps 758 mmHg 50%
14:00 +22°C° 0 mm 3 mps 758 mmHg 46%
15:00 +21°C° 0 mm 2 mps 758 mmHg 50%
16:00 +19°C° 0 mm 2 mps 758 mmHg 54%
17:00 +18°C° 0 mm 2 mps 758 mmHg 58%
18:00 +18°C° 0 mm 2 mps 758 mmHg 62%
19:00 +17°C° 0 mm 2 mps 758 mmHg 66%
20:00 +16°C° 0 mm 2 mps 759 mmHg 70%
21:00 +16°C° 0 mm 2 mps 759 mmHg 73%
22:00 +16°C° 0 mm 2 mps 759 mmHg 75%
23:00 +15°C° 0 mm 2 mps 759 mmHg 78%

25 October, Sunday

Time Temperature Precipitation Wind Pressure Humidity
00:00 +16°C° 0 mm 1 mps 756 mmHg 77%
01:00 +16°C° 0 mm 2 mps 756 mmHg 78%
02:00 +16°C° 0 mm 2 mps 756 mmHg 79%
03:00 +16°C° 0 mm 2 mps 756 mmHg 80%
04:00 +16°C° 0 mm 2 mps 756 mmHg 82%
05:00 +16°C° 0 mm 2 mps 756 mmHg 83%
06:00 +16°C° 0 mm 2 mps 757 mmHg 81%
07:00 +17°C° 0 mm 2 mps 757 mmHg 79%
08:00 +18°C° 0 mm 2 mps 757 mmHg 76%
09:00 +19°C° 0 mm 2 mps 757 mmHg 70%
10:00 +20°C° 0 mm 2 mps 757 mmHg 64%
11:00 +21°C° 0 mm 2 mps 758 mmHg 57%
12:00 +21°C° 0 mm 2 mps 758 mmHg 53%
13:00 +23°C° 0 mm 2 mps 758 mmHg 50%
14:00 +22°C° 0 mm 3 mps 758 mmHg 46%
15:00 +21°C° 0 mm 2 mps 758 mmHg 50%
16:00 +19°C° 0 mm 2 mps 758 mmHg 54%
17:00 +18°C° 0 mm 2 mps 758 mmHg 58%
18:00 +18°C° 0 mm 2 mps 758 mmHg 62%
19:00 +17°C° 0 mm 2 mps 758 mmHg 66%
20:00 +16°C° 0 mm 2 mps 759 mmHg 70%
21:00 +16°C° 0 mm 2 mps 759 mmHg 73%
22:00 +16°C° 0 mm 2 mps 759 mmHg 75%
23:00 +15°C° 0 mm 2 mps 759 mmHg 78%

26 October, Monday

Time Temperature Precipitation Wind Pressure Humidity
00:00 +15°C° 0 mm 2 mps 759 mmHg 80%
01:00 +15°C° 0 mm 2 mps 759 mmHg 82%
02:00 +14°C° 0 mm 2 mps 759 mmHg 85%
03:00 +13°C° 0 mm 3 mps 759 mmHg 86%
04:00 +13°C° 0 mm 3 mps 759 mmHg 88%
05:00 +13°C° 0 mm 3 mps 759 mmHg 89%
06:00 +14°C° 0 mm 4 mps 760 mmHg 85%
07:00 +14°C° 0 mm 4 mps 760 mmHg 80%
08:00 +15°C° 0 mm 5 mps 760 mmHg 76%
09:00 +16°C° 0 mm 5 mps 760 mmHg 71%
10:00 +17°C° 0 mm 5 mps 760 mmHg 66%
11:00 +19°C° 0 mm 6 mps 760 mmHg 60%
12:00 +19°C° 0 mm 6 mps 760 mmHg 58%
13:00 +19°C° 0 mm 6 mps 760 mmHg 57%
14:00 +19°C° 0 mm 6 mps 760 mmHg 55%
15:00 +17°C° 0 mm 6 mps 759 mmHg 60%
16:00 +16°C° 0 mm 6 mps 759 mmHg 64%
17:00 +15°C° 0 mm 6 mps 759 mmHg 69%
18:00 +15°C° 0 mm 6 mps 759 mmHg 68%
19:00 +15°C° 0 mm 6 mps 759 mmHg 67%
20:00 +15°C° 0 mm 5 mps 759 mmHg 66%
21:00 +15°C° 0 mm 5 mps 759 mmHg 65%
22:00 +15°C° 0 mm 5 mps 759 mmHg 64%
23:00 +15°C° 0 mm 5 mps 759 mmHg 63%

27 October, Tuesday

Time Temperature Precipitation Wind Pressure Humidity
00:00 +15°C° 0 mm 5 mps 759 mmHg 63%
01:00 +14°C° 0 mm 5 mps 759 mmHg 63%
02:00 +14°C° 0 mm 5 mps 759 mmHg 63%
03:00 +14°C° 0 mm 4 mps 759 mmHg 64%
04:00 +14°C° 0 mm 4 mps 759 mmHg 65%
05:00 +13°C° 0 mm 4 mps 759 mmHg 66%
06:00 +14°C° 0 mm 5 mps 759 mmHg 64%
07:00 +14°C° 0 mm 5 mps 759 mmHg 63%
08:00 +15°C° 0 mm 6 mps 759 mmHg 62%
09:00 +16°C° 0 mm 6 mps 759 mmHg 58%
10:00 +17°C° 0 mm 6 mps 759 mmHg 53%
11:00 +20°C° 0 mm 6 mps 759 mmHg 48%
12:00 +20°C° 0 mm 6 mps 759 mmHg 47%
13:00 +20°C° 0 mm 6 mps 759 mmHg 46%
14:00 +21°C° 0 mm 6 mps 759 mmHg 45%
15:00 +20°C° 0 mm 5 mps 759 mmHg 50%
16:00 +17°C° 0 mm 5 mps 759 mmHg 55%
17:00 +16°C° 0 mm 5 mps 759 mmHg 59%
18:00 +17°C° 0 mm 4 mps 759 mmHg 60%
19:00 +15°C° 0 mm 4 mps 759 mmHg 60%
20:00 +15°C° 0 mm 4 mps 760 mmHg 61%
21:00 +14°C° 0 mm 4 mps 759 mmHg 62%
22:00 +14°C° 0 mm 4 mps 759 mmHg 63%
23:00 +14°C° 0 mm 3 mps 759 mmHg 65%
Show more